TimeEDT,TemperatureF,Dew PointF,Humidity,Sea Level PressureIn,VisibilityMPH,Wind Direction,Wind SpeedMPH,Gust SpeedMPH,PrecipitationIn,Events,Conditions,WindDirDegrees,DateUTC
12:53 AM,72.0,68.0,87,29.86,9.0,SE,5.8,-,N/A,,Clear,140,2013-03-24 04:53:00
1:53 AM,71.1,68.0,90,29.84,8.0,SE,5.8,-,N/A,,Clear,140,2013-03-24 05:53:00
2:53 AM,71.1,68.0,90,29.82,9.0,SE,5.8,-,N/A,,Clear,140,2013-03-24 06:53:00
3:53 AM,71.1,69.1,93,29.81,8.0,SE,5.8,-,N/A,,Clear,140,2013-03-24 07:53:00
4:53 AM,73.9,71.1,91,29.79,8.0,South,8.1,-,N/A,,Clear,170,2013-03-24 08:53:00
5:53 AM,75.0,71.1,87,29.77,9.0,South,15.0,-,N/A,,Clear,180,2013-03-24 09:53:00
6:53 AM,75.0,72.0,90,29.76,8.0,South,17.3,24.2,N/A,,Clear,180,2013-03-24 10:53:00
7:53 AM,75.0,72.0,90,29.75,8.0,South,16.1,-,N/A,,Clear,180,2013-03-24 11:53:00
8:53 AM,75.9,72.0,87,29.75,7.0,South,18.4,29.9,N/A,,Scattered Clouds,180,2013-03-24 12:53:00
9:24 AM,77.0,71.6,83,29.76,8.0,South,19.6,27.6,N/A,,Mostly Cloudy,180,2013-03-24 13:24:00
9:49 AM,78.8,71.6,78,29.77,8.0,South,20.7,29.9,N/A,,Mostly Cloudy,180,2013-03-24 13:49:00
9:53 AM,79.0,72.0,79,29.77,8.0,South,21.9,29.9,N/A,,Mostly Cloudy,180,2013-03-24 13:53:00
10:53 AM,80.1,72.0,76,29.79,8.0,South,19.6,32.2,N/A,,Overcast,190,2013-03-24 14:53:00
11:04 AM,78.8,71.6,78,29.80,8.0,South,23.0,29.9,N/A,,Overcast,190,2013-03-24 15:04:00
11:53 AM,81.0,73.0,77,29.81,7.0,SSW,21.9,27.6,N/A,,Mostly Cloudy,200,2013-03-24 15:53:00
12:53 PM,81.0,73.0,77,29.79,8.0,SSW,20.7,32.2,N/A,,Mostly Cloudy,200,2013-03-24 16:53:00
1:34 PM,78.8,71.6,78,29.80,7.0,SSW,16.1,-,N/A,,Overcast,210,2013-03-24 17:34:00
1:53 PM,79.0,72.0,79,29.79,7.0,SW,13.8,-,N/A,,Overcast,220,2013-03-24 17:53:00
2:33 PM,80.6,73.4,79,29.77,7.0,SW,11.5,-,N/A,,Overcast,230,2013-03-24 18:33:00
2:53 PM,81.0,72.0,74,29.76,8.0,SW,16.1,24.2,N/A,,Scattered Clouds,230,2013-03-24 18:53:00
3:53 PM,79.0,71.1,77,29.75,8.0,WSW,15.0,23.0,N/A,,Mostly Cloudy,240,2013-03-24 19:53:00
4:53 PM,80.1,71.1,74,29.73,8.0,SW,16.1,-,N/A,,Partly Cloudy,230,2013-03-24 20:53:00
5:53 PM,79.0,71.1,77,29.72,8.0,SW,16.1,-,N/A,,Partly Cloudy,220,2013-03-24 21:53:00
6:53 PM,77.0,71.1,82,29.73,8.0,SW,13.8,-,N/A,,Overcast,220,2013-03-24 22:53:00
7:53 PM,75.9,71.1,85,29.74,8.0,SW,13.8,-,N/A,,Overcast,220,2013-03-24 23:53:00
8:53 PM,75.9,71.1,85,29.76,8.0,SW,9.2,-,N/A,,Overcast,230,2013-03-25 00:53:00
9:53 PM,75.0,71.1,87,29.77,8.0,SW,11.5,-,N/A,,Overcast,230,2013-03-25 01:53:00
10:53 PM,75.0,71.1,87,29.78,7.0,WSW,10.4,-,N/A,,Overcast,240,2013-03-25 02:53:00
11:36 PM,73.4,71.6,94,29.78,7.0,WSW,8.1,-,N/A,,Overcast,250,2013-03-25 03:36:00
11:53 PM,73.9,71.1,91,29.78,6.0,West,9.2,-,N/A,,Overcast,260,2013-03-25 03:53:00